Location: Newark
(13.4899°N, 1.4745°W)
Time: 12:01:45
(UTC+00:00)

Hubble Space Telescope - Visible Passes

Search period start: 20 August 2019 00:00
Search period end: 30 August 2019 00:00
Orbit: 536 x 540 km, 28.5° (Epoch: 20 August)

Date Brightness Start Highest point End Pass type
(mag) Time Alt. Az. Time Alt. Az. Time Alt. Az.
20 Aug 3.2 20:09:15 10° NNW 20:11:19 14° N 20:11:19 14° N visible
21 Aug 2.9 19:58:26 10° NNW 20:01:09 17° NNE 20:01:15 17° NNE visible
22 Aug 2.6 19:47:40 10° NNW 19:50:44 20° NNE 19:51:13 20° NNE visible
23 Aug 2.3 19:36:54 10° NW 19:40:18 24° NNE 19:41:13 22° NE visible
24 Aug 2.0 19:26:11 10° NW 19:29:50 30° NNE 19:31:15 24° ENE visible
25 Aug 1.6 19:15:29 10° NW 19:19:21 39° NNE 19:21:21 23° ENE visible
25 Aug 4.1 20:56:41 10° W 20:56:41 10° W 20:56:41 10° W visible
26 Aug 1.1 19:04:50 10° NW 19:08:52 52° NNE 19:11:30 20° E visible
26 Aug 3.8 20:46:27 10° W 20:46:51 12° W 20:46:51 12° W visible
27 Aug 0.8 18:54:14 10° WNW 18:58:20 72° NNE 19:01:43 15° ESE visible
27 Aug 3.6 20:36:22 10° WSW 20:37:04 13° WSW 20:37:04 13° WSW visible
28 Aug 0.8 18:43:41 10° WNW 18:47:48 82° SSW 18:51:55 10° ESE visible
28 Aug 3.6 20:26:34 10° WSW 20:27:21 12° SW 20:27:21 12° SW visible
